Find Kosmos-2530

NORAD ID: 43751 Int'l Des: 2018-097 Owner: VVKOV Country: RU operational
LEOCIRCULARPOLAR

Current View

Loading 3D Globe...

About Kosmos-2530

Description loading...

Upcoming Passes

Passes for default location (London). Set your location on the main map for personalized predictions.

Altitude History

Loading altitude history...

Two-Line Element Set

1 43751U 18097A 26151.47228715 -.00000039 00000-0 -35094-3 0 9994
2 43751 82.5159 232.6526 0020672 74.6539 285.6823 12.42880381340210
Epoch: May 31, 2026 • Age: 10 hours

Current Status

Altitude 1488.2 km
Velocity 7.13 km/s
Sub-Earth Point 56.85°N, 35.03°E
Launch Date Nov 30, 2018
Age 7.4 years
Type other

Technical Details

Classification Payload
Mass 280.00 kg
Dry Mass 280.00 kg
Total Mass 280.00 kg
Length 1.60 m
Diameter 0.80 m
Span 7.00 m
Shape Cyl + Ant
Manufacturer RESH
Bus Type Strela-3M
Phase Status In Orbit
Owner/State VVKOV/RU

Most Searched